Starlink 31975

operational
NORAD ID: 59886 Int'l Des: 2024-100 Owner: SPXS Country: US Constellation: starlink
LEOCIRCULAR

About Starlink 31975

Description loading...

Live Position

Loading 3D Globe...

Upcoming Passes

Altitude History

Altitude vs Time

uPlot chart will show altitude changes over time

Two-Line Element Set

1 59886U 24100B 25354.03025697 -.00002439 00000-0 -79176-4 0 9998
2 59886 43.0021 215.3049 0001648 266.4773 93.5890 15.27556345 88975
Epoch: Dec 20, 2025 • Age: 20 hours

Current Status

Altitude 494.9 km
Velocity 7.62 km/s
Sub-Earth Point -41.93°S, 64.01°E
Launch Date May 28, 2024
Age 1.5 years
Type internet

Technical Details

Classification Payload
Mass 730.00 kg
Dry Mass 700.00 kg
Total Mass 730.00 kg
Length 0.30 m
Diameter 4.10 m
Span 29.00 m
Shape Box + pan
Manufacturer SPXS
Bus Type Starlink V2M
Phase Status In Orbit
Owner/State SPXS/US

Large Constellations

Loading constellations...